Regional Weather Roundup
Issued by NWS

Home | Current Version | Previous Version | Graphics & Text | Print | Product List | Glossary On
Versions: 1 2 3 4 5 6 7 8 9 10 11 12 13 14 15 16 17 18 19 20 21 22 23 24 25 26 27 28
000
ASUS45 KBOI 251910
RWRID

IDAHO REGIONAL WEATHER ROUNDUP
NATIONAL WEATHER SERVICE BOISE ID
100 PM MDT MON JUL 25 2016

NOTE: "FAIR" INDICATES FEW OR NO CLOUDS BELOW 12000 FEET
WITH NO SIGNIFICANT WEATHER AND/OR OBSTRUCTIONS TO VISIBILITY

IDZ012-014-252000-
SOUTHWEST IDAHO


CITY           SKY/WX    TMP DP  RH WIND       PRES   REMARKS
BOISE          SUNNY     87  41  19 CALM      30.02F
CALDWELL       NOT AVBL
MOUNTAIN HOME  SUNNY     89  37  15 VRB1      30.02F
$$

IDZ016-017-252000-
SOUTHCENTRAL IDAHO


CITY           SKY/WX    TMP DP  RH WIND       PRES   REMARKS
BURLEY         SUNNY     85  47  26 CALM      30.09F
JEROME         SUNNY     84  38  19 SW6       30.10F
TWIN FALLS     SUNNY     87  38  17 NW7       30.10F
$$

IDZ019>023-252000-
SOUTHEAST IDAHO


CITY           SKY/WX    TMP DP  RH WIND       PRES   REMARKS
IDAHO FALLS    SUNNY     86  31  13 VRB5      30.13F
POCATELLO      SUNNY     87  36  16 NW5       30.12F
REXBURG        NOT AVBL
$$

IDZ006-010-011-018-031-032-252000-
CENTRAL IDAHO MOUNTAINS


CITY           SKY/WX    TMP DP  RH WIND       PRES   REMARKS
MCCALL         SUNNY     82  40  22 CALM      30.17S
HAILEY         SUNNY     82  45  26 SE9       30.16F
STANLEY        NOT AVBL
SALMON         SUNNY     82  43  24 NW5       30.04F
CHALLIS        SUNNY     84  37  18 E5        30.14F
$$

IDZ002-004-006-007-026-252000-
NORTHERN IDAHO


CITY           SKY/WX    TMP DP  RH WIND       PRES   REMARKS
LEWISTON       SUNNY     88  49  25 NE5       29.99F
LOWELL           N/A     85  50  29 CALM      29.99F
COEUR D`ALENE  SUNNY     84  54  34 CALM      30.02F
MULLAN PASS    SUNNY     69  45  41 CALM      30.25R
$$




USA.gov is the U.S. government's official web portal to all federal, state and local government web resources and services.